Date String (YYYY-MM-DD hh:mm:ss) UTC,Instrument flags,Ambient pressure (hPa),Sample flow (lpm),Bypass flow (lpm),Sample temperature (°C),Ambient temperature (°C),ASC tube jacket temperature (°C),LED temperature (°C),Box temperature (°C),Sample RH (%),Span deviation,Mass concentration (μg/m³),Mass concentration (μg/m³),Mass concentration (μg/m³)
DateTimeUTC,F1_M11,P_M11,Q1_M11,Q2_M11,T1_M11,T2_M11,T3_M11,T4_M11,T5_M11,U1_M11,ZSPAN_M11,X2_M11,X0_M11,X1_M11
2022-03-06 10:00:00,,0823.4,5.00,0.00,21.3,20.8,00.0,30.4,22.7,12.0,0000.0,0003.31,0003.97,0003.15
2022-03-06 10:01:00,,0823.5,5.00,0.00,21.2,20.6,00.0,30.4,22.7,12.0,0000.0,0003.30,0003.94,0003.16
2022-03-06 10:02:00,,0823.4,4.99,0.00,21.1,20.5,00.0,30.3,22.6,12.1,0000.0,0003.31,0003.92,0003.18
2022-03-06 10:03:00,,0823.5,5.00,0.00,21.1,20.8,00.0,30.3,22.7,12.1,0000.0,0003.33,0003.88,0003.21
2022-03-06 10:04:00,,0823.5,5.02,0.00,21.3,21.7,00.0,30.4,23.1,12.0,0000.0,0003.35,0003.98,0003.23
2022-03-06 10:05:00,,0823.5,5.01,0.00,21.5,22.5,00.0,30.4,23.4,11.9,0000.0,0003.37,0004.02,0003.25
2022-03-06 10:06:00,,0823.4,4.98,0.00,21.5,22.4,00.0,30.5,23.4,11.8,0000.0,0003.39,0004.04,0003.27
2022-03-06 10:07:00,,0823.4,5.00,0.00,21.5,21.9,00.0,30.5,23.2,11.7,0000.0,0003.41,0004.09,0003.29
2022-03-06 10:08:00,,0823.4,5.02,0.00,21.4,21.6,00.0,30.5,23.1,11.8,0000.0,0003.45,0004.16,0003.32
2022-03-06 10:09:00,,0823.4,5.00,0.00,21.4,21.3,00.0,30.4,22.9,11.8,0000.0,0003.50,0004.26,0003.36
2022-03-06 10:10:00,,0823.4,5.00,0.00,21.3,21.0,00.0,30.4,22.8,11.8,0000.0,0003.51,0004.25,0003.38
2022-03-06 10:11:00,,0823.3,5.00,0.00,21.2,20.8,00.0,30.4,22.7,11.9,0000.0,0003.53,0004.37,0003.40
2022-03-06 10:12:00,,0823.5,4.99,0.00,21.2,20.6,00.0,30.4,22.6,11.9,0000.0,0003.56,0004.44,0003.42
2022-03-06 10:13:00,,0823.3,4.99,0.00,21.1,20.8,00.0,30.4,22.7,11.9,0000.0,0003.59,0004.55,0003.44
2022-03-06 10:14:00,,0823.4,5.00,0.00,21.3,21.7,00.0,30.4,23.0,11.8,0000.0,0003.61,0004.57,0003.46
2022-03-06 10:15:00,,0823.4,5.01,0.00,21.5,22.5,00.0,30.5,23.3,11.7,0000.0,0003.62,0004.51,0003.48
2022-03-06 10:16:00,,0823.4,5.00,0.00,21.5,22.2,00.0,30.5,23.4,11.6,0000.0,0003.64,0004.55,0003.49
2022-03-06 10:17:00,,0823.4,4.99,0.00,21.5,21.7,00.0,30.5,23.2,11.6,0000.0,0003.64,0004.56,0003.49
2022-03-06 10:18:00,,0823.4,5.00,0.00,21.4,21.2,00.0,30.4,23.0,11.7,0000.0,0003.66,0004.62,0003.51
2022-03-06 10:19:00,,0823.4,4.99,0.00,21.3,20.9,00.0,30.4,22.8,11.8,0000.0,0003.70,0004.82,0003.52
2022-03-06 10:20:00,,0823.3,5.00,0.00,21.3,20.7,00.0,30.4,22.7,11.8,0000.0,0003.71,0004.85,0003.54
2022-03-06 10:21:00,,0823.3,5.00,0.00,21.2,20.6,00.0,30.4,22.6,11.9,0000.0,0003.74,0005.09,0003.55
2022-03-06 10:22:00,,0823.3,5.00,0.00,21.1,20.5,00.0,30.4,22.5,11.9,0000.0,0003.74,0005.58,0003.55
2022-03-06 10:23:00,,0823.3,5.00,0.00,21.1,20.4,00.0,30.3,22.5,11.9,0000.0,0003.73,0005.60,0003.53
2022-03-06 10:24:00,,0823.3,5.01,0.00,21.1,20.9,00.0,30.3,22.7,11.9,0000.0,0003.73,0005.66,0003.52
2022-03-06 10:25:00,,0823.3,5.00,0.00,21.3,21.9,00.0,30.4,23.1,11.8,0000.0,0003.72,0005.61,0003.51
2022-03-06 10:26:00,,0823.3,5.00,0.00,21.4,22.5,00.0,30.4,23.3,11.6,0000.0,0003.70,0005.57,0003.49
2022-03-06 10:27:00,,0823.4,5.00,0.00,21.5,22.2,00.0,30.4,23.3,11.5,0000.0,0003.67,0005.53,0003.47
2022-03-06 10:28:00,,0823.4,4.99,0.00,21.4,21.8,00.0,30.4,23.1,11.5,0000.0,0003.65,0005.46,0003.46
2022-03-06 10:29:00,,0823.4,5.00,0.00,21.4,21.4,00.0,30.4,22.9,11.6,0000.0,0003.62,0005.41,0003.43
2022-03-06 10:30:00,,0823.3,5.00,0.00,21.3,21.1,00.0,30.4,22.8,11.6,0000.0,0003.58,0005.20,0003.40
2022-03-06 10:31:00,,0823.4,5.00,0.00,21.2,20.9,00.0,30.4,22.7,11.6,0000.0,0003.55,0005.10,0003.38
2022-03-06 10:32:00,,0823.4,5.00,0.00,21.2,20.7,00.0,30.4,22.7,11.6,0000.0,0003.50,0004.91,0003.35
2022-03-06 10:33:00,,0823.4,5.00,0.00,21.1,20.5,00.0,30.4,22.6,11.6,0000.0,0003.48,0004.31,0003.33
2022-03-06 10:34:00,,0823.3,4.99,0.00,21.1,20.9,00.0,30.4,22.7,11.7,0000.0,0003.46,0004.18,0003.32
2022-03-06 10:35:00,,0823.4,4.99,0.00,21.3,21.8,00.0,30.4,23.1,11.6,0000.0,0003.43,0004.00,0003.30
2022-03-06 10:36:00,,0823.3,5.01,0.00,21.5,22.5,00.0,30.4,23.4,11.4,0000.0,0003.41,0003.94,0003.28
2022-03-06 10:37:00,,0823.3,5.00,0.00,21.5,22.3,00.0,30.4,23.3,11.4,0000.0,0003.41,0003.97,0003.28
2022-03-06 10:38:00,,0823.4,4.99,0.00,21.5,21.9,00.0,30.5,23.2,11.4,0000.0,0003.40,0003.95,0003.28
2022-03-06 10:39:00,,0823.4,5.00,0.00,21.4,21.4,00.0,30.5,23.0,11.4,0000.0,0003.41,0004.05,0003.27
2022-03-06 10:40:00,,0823.4,5.00,0.00,21.4,21.0,00.0,30.4,22.9,11.5,0000.0,0003.42,0004.05,0003.27
2022-03-06 10:41:00,,0823.3,5.00,0.00,21.3,20.8,00.0,30.4,22.8,11.5,0000.0,0003.41,0004.05,0003.27
2022-03-06 10:42:00,,0823.3,4.99,0.00,21.2,20.7,00.0,30.4,22.7,11.6,0000.0,0003.42,0004.06,0003.27
2022-03-06 10:43:00,,0823.4,5.01,0.00,21.2,20.6,00.0,30.4,22.6,11.6,0000.0,0003.44,0004.11,0003.28
2022-03-06 10:44:00,,0823.4,5.00,0.00,21.2,20.9,00.0,30.4,22.7,11.6,0000.0,0003.44,0004.04,0003.29
2022-03-06 10:45:00,,0823.5,5.00,0.00,21.3,21.7,00.0,30.4,23.1,11.5,0000.0,0003.46,0004.07,0003.31
2022-03-06 10:46:00,,0823.4,5.00,0.00,21.5,22.5,00.0,30.5,23.4,11.4,0000.0,0003.48,0004.15,0003.33
2022-03-06 10:47:00,,0823.4,5.00,0.00,21.6,22.4,00.0,30.5,23.4,11.4,0000.0,0003.51,0004.23,0003.36
2022-03-06 10:48:00,,0823.4,4.99,0.00,21.6,22.1,00.0,30.5,23.3,11.4,0000.0,0003.55,0004.31,0003.39
2022-03-06 10:49:00,,0823.3,5.01,0.00,21.5,21.7,00.0,30.5,23.1,11.4,0000.0,0003.58,0004.36,0003.41
2022-03-06 10:50:00,,0823.3,5.00,0.00,21.5,21.4,00.0,30.5,23.0,11.4,0000.0,0003.61,0004.44,0003.44
2022-03-06 10:51:00,,0823.4,5.00,0.00,21.4,21.1,00.0,30.5,22.9,11.5,0000.0,0003.63,0004.50,0003.47
2022-03-06 10:52:00,,0823.3,5.00,0.00,21.3,20.9,00.0,30.5,22.8,11.5,0000.0,0003.66,0004.63,0003.49
2022-03-06 10:53:00,,0823.3,4.99,0.00,21.3,20.6,00.0,30.4,22.8,11.6,0000.0,0003.67,0004.64,0003.51
2022-03-06 10:54:00,,0823.3,4.99,0.00,21.2,20.3,00.0,30.4,22.6,11.6,0000.0,0003.69,0004.68,0003.53
2022-03-06 10:55:00,,0823.4,5.00,0.00,21.1,20.4,00.0,30.4,22.6,11.7,0000.0,0003.74,0004.81,0003.57
2022-03-06 10:56:00,,0823.4,5.00,0.00,21.3,21.5,00.0,30.4,22.9,11.6,0000.0,0003.79,0004.93,0003.61
2022-03-06 10:57:00,,0823.4,5.01,0.00,21.4,22.4,00.0,30.5,23.3,11.5,0000.0,0003.85,0005.07,0003.66
2022-03-06 10:58:00,,0823.3,5.01,0.00,21.6,22.4,00.0,30.5,23.4,11.4,0000.0,0003.87,0005.06,0003.69
2022-03-06 10:59:00,,0823.3,5.00,0.00,21.5,21.8,00.0,30.5,23.2,11.4,0000.0,0003.90,0005.14,0003.71
